McConnell AFB, KS

7:17 PM CDT on September 16, 2019 (GMT -0500)
McConnell Air Force Base

Weather History for KIAB - May, 2019

Change the Weather History Date:

Wednesday, May 8, 2019

  Actual Average Record
Temperature  
Mean Temperature 62 °F -  
Max Temperature 67 °F 73 °F 91 °F (2011)
Min Temperature 55 °F 52 °F 44 °F (1999)
Degree Days  
Heating Degree Days 4    
Growing Degree Days 12 (Base 50)    
Moisture  
Dew Point 58 °F    
Average Humidity 91    
Maximum Humidity 100    
Minimum Humidity 71    
Precipitation  
Precipitation 1.30 in - - ()
Sea Level Pressure  
Sea Level Pressure 29.71 in    
Wind  
Wind Speed 10 mph (West)    
Max Wind Speed 21 mph    
Max Gust Speed 30 mph    
Visibility 9 miles    
Events Rain , Thunderstorm    
Averages and records for this station are not official NWS values.
T = Trace of Precipitation, MM = Missing Value Source: NWS Daily Summary

Daily Weather History Graph

Daily Weather History Graph

Search for Another Location

Airport or City:

Astronomy

May. 08, 2019 Rise Set
Actual Time 6:26 AM CDT 8:25 PM CDT
Civil Twilight 5:57 AM CDT 8:54 PM CDT
Nautical Twilight 5:22 AM CDT 9:29 PM CDT
Astronomical Twilight 4:45 AM CDT 10:07 PM CDT
Moon 9:26 AM CDT (5/8) No Moon Set
Length of Visible Light 14h 56m
Length of Day
13h 59m
Waxing Crescent, 16% of the Moon is Illuminated
May 8
Waxing Crescent
May 11
First Quarter
May 18
Full
May 26
Last Quarter
Jun 3
New

Hourly Weather History & Observations

Time (CDT) Temp. Dew Point Humidity Pressure Visibility Wind Dir Wind Speed Gust Speed Precip Events Conditions
12:08 AM 62.6 °F 62.6 °F 100% 29.77 in 5.0 mi West 10.4 mph - N/A Rain Heavy Rain
12:09 AM 62.6 °F 62.6 °F 100% 29.77 in 5.0 mi West 11.5 mph - N/A Rain Heavy Rain
12:16 AM 62.6 °F 62.6 °F 100% 29.78 in 5.0 mi West 13.8 mph - N/A Rain Heavy Rain
12:21 AM 62.6 °F 62.6 °F 100% 29.78 in 5.0 mi West 15.0 mph 21.9 mph N/A Rain Heavy Rain
12:26 AM 60.8 °F 60.8 °F 100% 29.78 in 5.0 mi West 15.0 mph 23.0 mph N/A Rain , Thunderstorm Heavy Thunderstorms and Rain
12:49 AM 59.0 °F 59.0 °F 100% 29.79 in 6.0 mi West 19.6 mph 29.9 mph N/A Rain Heavy Rain
12:51 AM 59.0 °F 59.0 °F 100% 29.80 in 6.0 mi WSW 19.6 mph 29.9 mph N/A Rain Heavy Rain
12:56 AM 59.0 °F 58.6 °F 99% 29.81 in 6.0 mi West 17.3 mph 29.9 mph 0.27 in Rain Heavy Rain
1:02 AM 59.0 °F 59.0 °F 100% 29.80 in 6.0 mi West 16.1 mph 27.6 mph N/A Rain Heavy Rain
1:07 AM 59.0 °F 59.0 °F 100% 29.80 in 6.0 mi WSW 17.3 mph 25.3 mph N/A Rain Heavy Rain
1:26 AM 59.0 °F 57.2 °F 94% 29.77 in 6.0 mi West 17.3 mph 23.0 mph N/A Rain , Thunderstorm Heavy Thunderstorms and Rain
1:48 AM 59.0 °F 57.2 °F 94% 29.79 in 7.0 mi West 12.7 mph 19.6 mph N/A Rain , Thunderstorm Heavy Rain
1:56 AM 58.8 °F 57.0 °F 94% 29.78 in 7.0 mi West 11.5 mph 21.9 mph 0.24 in Rain , Thunderstorm Heavy Rain
2:15 AM 59.0 °F 57.2 °F 94% 29.77 in 8.0 mi West 12.7 mph - N/A Rain , Thunderstorm Heavy Thunderstorms and Rain
2:45 AM 59.0 °F 57.2 °F 94% 29.77 in 5.0 mi SW 5.8 mph - N/A Rain Rain
2:56 AM 58.5 °F 57.6 °F 97% 29.76 in 6.0 mi WSW 5.8 mph - 0.16 in Rain Rain
3:17 AM 59.0 °F 57.2 °F 94% 29.74 in 6.0 mi SSW 4.6 mph - N/A Rain , Thunderstorm Light Thunderstorms and Rain
3:56 AM 57.7 °F 57.4 °F 99% 29.73 in 10.0 mi SSE 5.8 mph - 0.08 in Rain Light Rain
4:04 AM 57.2 °F 57.2 °F 100% 29.71 in 10.0 mi SSE 6.9 mph - N/A Rain , Thunderstorm Light Rain
4:08 AM 57.2 °F 57.2 °F 100% 29.70 in 10.0 mi SSE 6.9 mph - N/A Rain , Thunderstorm Light Rain
4:11 AM 57.2 °F 57.2 °F 100% 29.70 in 10.0 mi SSE 6.9 mph - N/A Rain , Thunderstorm Light Thunderstorms and Rain
4:32 AM 57.2 °F 57.2 °F 100% 29.73 in 10.0 mi South 9.2 mph - N/A Rain Light Rain
4:47 AM 57.2 °F 57.2 °F 100% 29.74 in 7.0 mi SSE 6.9 mph - N/A Rain , Thunderstorm Thunderstorms and Rain
4:56 AM 57.6 °F 57.2 °F 99% 29.72 in 8.0 mi ESE 4.6 mph - 0.10 in Rain , Thunderstorm Light Thunderstorms and Rain
5:02 AM 57.2 °F 57.2 °F 100% 29.72 in 9.0 mi East 5.8 mph - N/A Rain , Thunderstorm Light Rain
5:11 AM 57.2 °F 57.2 °F 100% 29.72 in 10.0 mi ESE 5.8 mph - N/A   Clear
5:13 AM 57.2 °F 57.2 °F 100% 29.72 in 10.0 mi East 6.9 mph - N/A Rain Light Rain
5:28 AM 57.2 °F 57.2 °F 100% 29.71 in 10.0 mi East 5.8 mph - N/A Rain Light Rain
5:51 AM 57.2 °F 57.2 °F 100% 29.66 in 10.0 mi ENE 9.2 mph 19.6 mph N/A   Mostly Cloudy
5:56 AM 57.4 °F 57.0 °F 99% 29.68 in 10.0 mi ESE 13.8 mph 19.6 mph 0.05 in   Mostly Cloudy
5:57 AM 57.2 °F 57.2 °F 100% 29.70 in 10.0 mi SE 15.0 mph - N/A   Mostly Cloudy
5:59 AM 57.2 °F 57.2 °F 100% 29.71 in 10.0 mi SSE 13.8 mph - N/A   Mostly Cloudy
6:56 AM 57.6 °F 57.2 °F 99% 29.57 in 10.0 mi NE 11.5 mph - N/A   Partly Cloudy
7:24 AM 59.0 °F 57.2 °F 94% 29.65 in 10.0 mi West 8.1 mph - N/A   Mostly Cloudy
7:35 AM 59.0 °F 57.2 °F 94% 29.65 in 10.0 mi WNW 4.6 mph - N/A   Overcast
7:56 AM 58.5 °F 57.4 °F 96% 29.66 in 10.0 mi NNW 4.6 mph - N/A   Overcast
7:58 AM 59.0 °F 57.2 °F 94% 29.66 in 10.0 mi NNW 5.8 mph - N/A   Overcast
8:38 AM 59.0 °F 59.0 °F 100% 29.68 in 10.0 mi NNW 5.8 mph - N/A   Overcast
8:56 AM 59.2 °F 58.1 °F 96% 29.69 in 10.0 mi WNW 4.6 mph - N/A   Overcast
8:57 AM 59.0 °F 59.0 °F 100% 29.69 in 10.0 mi WNW 4.6 mph - N/A   Overcast
9:14 AM 59.0 °F 57.2 °F 94% 29.68 in 10.0 mi Calm Calm - N/A   Mostly Cloudy
9:56 AM 61.2 °F 56.7 °F 85% 29.69 in 10.0 mi Calm Calm - N/A   Mostly Cloudy
10:17 AM 60.8 °F 57.2 °F 88% 29.69 in 10.0 mi ESE 3.5 mph - N/A   Scattered Clouds
10:56 AM 62.6 °F 57.4 °F 83% 29.69 in 10.0 mi Calm Calm - N/A   Mostly Cloudy
11:04 AM 62.6 °F 57.2 °F 82% 29.69 in 10.0 mi Calm Calm - N/A   Mostly Cloudy
11:19 AM 64.4 °F 57.2 °F 77% 29.69 in 10.0 mi West 4.6 mph - N/A   Mostly Cloudy
11:56 AM 64.6 °F 56.8 °F 76% 29.68 in 10.0 mi WNW 4.6 mph - N/A   Scattered Clouds
12:46 PM 66.2 °F 57.2 °F 73% 29.66 in 10.0 mi West 3.5 mph - N/A   Overcast
12:48 PM 66.2 °F 57.2 °F 73% 29.66 in 10.0 mi WNW 4.6 mph - N/A   Overcast
12:56 PM 65.8 °F 56.1 °F 71% 29.66 in 10.0 mi West 3.5 mph - N/A   Overcast
1:01 PM 66.2 °F 57.2 °F 73% 29.66 in 10.0 mi Calm Calm - N/A   Overcast
1:12 PM 66.2 °F 57.2 °F 73% 29.64 in 10.0 mi WSW 4.6 mph - N/A   Overcast
1:16 PM 66.2 °F 57.2 °F 73% 29.65 in 10.0 mi Calm Calm - N/A   Overcast
1:31 PM 66.2 °F 57.2 °F 73% 29.65 in 10.0 mi SSW 4.6 mph - N/A   Overcast
1:56 PM - - N/A% - - North - - N/A   Unknown
2:50 PM 66.2 °F 57.2 °F 73% - 10.0 mi SSW 6.9 mph - N/A   Overcast
2:56 PM 66.6 °F 57.2 °F 72% 29.70 in 10.0 mi SSW 6.9 mph - N/A   Overcast
3:13 PM 66.2 °F 57.2 °F 73% - 10.0 mi SW 6.9 mph - N/A   Overcast
3:27 PM 66.2 °F 57.2 °F 73% - 10.0 mi SSW 6.9 mph - N/A   Overcast
3:34 PM 66.2 °F 57.2 °F 73% - 10.0 mi SSW 6.9 mph - N/A   Overcast
3:44 PM 64.4 °F 57.2 °F 77% - 10.0 mi SSW 6.9 mph - N/A   Overcast
3:52 PM 64.4 °F 59.0 °F 83% - 10.0 mi South 9.2 mph - N/A   Overcast
3:56 PM 63.9 °F 58.3 °F 82% - 10.0 mi South 8.1 mph - N/A   Overcast
3:57 PM 64.4 °F 59.0 °F 83% 29.70 in 10.0 mi SSW 8.1 mph - N/A   Overcast
4:03 PM 64.4 °F 59.0 °F 83% - 10.0 mi South 9.2 mph - N/A   Light Drizzle
4:06 PM 64.4 °F 59.0 °F 83% - 10.0 mi South 8.1 mph - N/A   Light Drizzle
4:30 PM 62.6 °F 60.8 °F 94% 29.65 in 9.0 mi SSW 6.9 mph - N/A   Overcast
4:56 PM 62.2 °F 60.4 °F 94% 29.65 in 10.0 mi SSW 3.5 mph - 0.01 in   Overcast
5:04 PM 62.6 °F 60.8 °F 94% 29.65 in 10.0 mi Calm Calm - N/A   Overcast
5:19 PM 62.6 °F 60.8 °F 94% 29.64 in 10.0 mi Calm Calm - N/A   Overcast
5:41 PM 62.6 °F 60.8 °F 94% 29.65 in 10.0 mi Calm Calm - N/A   Light Drizzle
5:44 PM 62.6 °F 60.8 °F 94% 29.65 in 10.0 mi West 3.5 mph - N/A Rain Light Rain
5:56 PM 61.9 °F 60.4 °F 95% 29.68 in 6.0 mi NW 8.1 mph - 0.00 in Rain Light Rain
6:00 PM 62.6 °F 60.8 °F 94% 29.68 in 2.5 mi NW 16.1 mph - N/A Rain Heavy Rain
6:02 PM 60.8 °F 60.8 °F 100% 29.68 in 2.2 mi NW 20.7 mph 26.5 mph N/A Rain Heavy Rain
6:04 PM 60.8 °F 59.0 °F 94% 29.68 in 2.0 mi NW 16.1 mph 26.5 mph N/A Rain Heavy Rain
6:05 PM 60.8 °F 57.2 °F 88% 29.68 in 1.9 mi NW 16.1 mph 26.5 mph N/A Rain Heavy Rain
6:12 PM 59.0 °F 57.2 °F 94% 29.68 in 2.2 mi NNW 12.7 mph 26.5 mph N/A Rain Heavy Rain
6:14 PM 59.0 °F 57.2 °F 94% 29.68 in 3.0 mi NNW 13.8 mph - N/A Rain Heavy Rain
6:20 PM 59.0 °F 57.2 °F 94% 29.67 in 9.0 mi NNW 17.3 mph - N/A Rain Light Rain
6:22 PM 59.0 °F 57.2 °F 94% 29.67 in 10.0 mi NNW 13.8 mph - N/A Rain Light Rain
6:27 PM 59.0 °F 57.2 °F 94% 29.68 in 10.0 mi North 13.8 mph - N/A Rain Heavy Rain
6:56 PM 58.8 °F 56.1 °F 91% 29.73 in 6.0 mi NNW 6.9 mph - 0.23 in Rain Rain
7:56 PM 58.1 °F 56.1 °F 93% 29.68 in 10.0 mi NNE 12.7 mph - 0.16 in Rain Light Rain
8:19 PM 59.0 °F 55.4 °F 88% 29.70 in 10.0 mi NE 8.1 mph - N/A   Overcast
8:56 PM 58.1 °F 56.1 °F 93% 29.71 in 10.0 mi Calm Calm - 0.00 in   Overcast
9:35 PM 57.2 °F 57.2 °F 100% 29.75 in 10.0 mi WNW 4.6 mph - N/A   Mostly Cloudy
9:52 PM 59.0 °F 57.2 °F 94% 29.74 in 10.0 mi NNW 4.6 mph - N/A   Overcast
9:56 PM 58.1 °F 56.7 °F 95% 29.74 in 10.0 mi NNW 6.9 mph - N/A   Overcast
9:57 PM 59.0 °F 57.2 °F 94% 29.74 in 10.0 mi NNW 6.9 mph - N/A   Overcast
10:56 PM 57.7 °F 54.5 °F 89% 29.78 in 10.0 mi NNW 12.7 mph - N/A   Overcast
11:00 PM 57.2 °F 55.4 °F 94% 29.78 in 10.0 mi NNW 12.7 mph - N/A   Overcast
11:08 PM 57.2 °F 53.6 °F 88% 29.78 in 10.0 mi NNW 11.5 mph - N/A   Overcast
11:09 PM 57.2 °F 53.6 °F 88% 29.78 in 10.0 mi NNW 12.7 mph - N/A   Overcast
11:27 PM 57.2 °F 53.6 °F 88% 29.78 in 10.0 mi NNW 16.1 mph - N/A   Overcast
11:30 PM 57.2 °F 53.6 °F 88% 29.78 in 10.0 mi North 17.3 mph 23.0 mph N/A   Overcast
11:56 PM 55.2 °F 51.8 °F 88% 29.81 in 10.0 mi North 19.6 mph - N/A   Overcast